Hailey, ID

8:24 PM MDT on March 24, 2017 (GMT -0600)
Friedman Memorial

Weather History for KSUN - March, 2013

Change the Weather History Date:

Friday, March 29, 2013

  Actual Average Record
Temperature  
Mean Temperature 48 °F -  
Max Temperature 60 °F 48 °F 62 °F (2004)
Min Temperature 37 °F 26 °F 15 °F (1997)
Degree Days  
Heating Degree Days 16    
Moisture  
Dew Point 32 °F    
Average Humidity 62    
Maximum Humidity 87    
Minimum Humidity 29    
Precipitation  
Precipitation 0.00 in - - ()
Sea Level Pressure  
Sea Level Pressure 30.15 in    
Wind  
Wind Speed 9 mph (NW)    
Max Wind Speed 13 mph    
Max Gust Speed 21 mph    
Visibility 10 miles    
Events Rain    
Averages and records for this station are not official NWS values.
T = Trace of Precipitation, MM = Missing Value Source: NWS Daily Summary

Daily Weather History Graph

Daily Weather History Graph

Search for Another Location

Airport or City:

Trip Planner

Search our weather history database for the weather conditions in past years. The results will help you decide how hot, cold, wet, or windy it might be!

Date:

Astronomy

Mar. 29, 2013 Rise Set
Actual Time 7:23 AM MDT 8:00 PM MDT
Civil Twilight 6:54 AM MDT 8:29 PM MDT
Nautical Twilight 6:20 AM MDT 9:03 PM MDT
Astronomical Twilight 5:45 AM MDT 9:39 PM MDT
Moon 11:11 PM MDT (3/29) 8:30 AM MDT (3/29)
Length of Visible Light 13h 34m
Length of Day
12h 37m
Waning Gibbous, 93% of the Moon is Illuminated
Mar 29
Waning Gibbous
Apr 2
Last Quarter
Apr 10
New
Apr 18
First Quarter
Apr 25
Full

Hourly Weather History & Observations

Time (MDT) Temp. Windchill Dew Point Humidity Pressure Visibility Wind Dir Wind Speed Gust Speed Precip Events Conditions
12:15 AM 42.8 °F 37.5 °F 30.2 °F 61% 30.10 in 10.0 mi NW 9.2 mph - N/A   Mostly Cloudy
12:35 AM 42.8 °F 37.5 °F 30.2 °F 61% 30.11 in 10.0 mi NW 9.2 mph - N/A   Mostly Cloudy
12:55 AM 42.8 °F 37.5 °F 32.0 °F 66% 30.11 in 10.0 mi NNW 9.2 mph - N/A   Overcast
1:15 AM 42.8 °F 38.0 °F 30.2 °F 61% 30.12 in 10.0 mi NW 8.1 mph - N/A   Overcast
1:35 AM 41.0 °F 35.8 °F 32.0 °F 70% 30.13 in 10.0 mi North 8.1 mph - N/A   Mostly Cloudy
1:55 AM 41.0 °F 37.1 °F 30.2 °F 65% 30.14 in 10.0 mi NNW 5.8 mph - N/A   Overcast
2:15 AM 42.8 °F 36.6 °F 32.0 °F 66% 30.13 in 10.0 mi North 11.5 mph - N/A   Drizzle
2:55 AM 42.8 °F 36.2 °F 33.8 °F 70% 30.13 in 10.0 mi WNW 12.7 mph - N/A   Mostly Cloudy
3:15 AM 41.0 °F 34.3 °F 32.0 °F 70% 30.13 in 10.0 mi NNW 11.5 mph - N/A   Mostly Cloudy
3:55 AM 41.0 °F 34.7 °F 32.0 °F 70% 30.13 in 10.0 mi WNW 10.4 mph - N/A   Scattered Clouds
4:15 AM 41.0 °F 35.2 °F 32.0 °F 70% 30.13 in 10.0 mi NW 9.2 mph - N/A   Mostly Cloudy
4:55 AM 41.0 °F 36.4 °F 33.8 °F 76% 30.13 in 10.0 mi WNW 6.9 mph - N/A   Mostly Cloudy
5:15 AM 37.4 °F 31.4 °F 33.8 °F 87% 30.14 in 10.0 mi NNW 8.1 mph - N/A   Clear
5:35 AM 37.4 °F 30.8 °F 32.0 °F 81% 30.14 in 10.0 mi NW 9.2 mph - N/A   Scattered Clouds
5:55 AM 37.4 °F 31.4 °F 32.0 °F 81% 30.15 in 10.0 mi NW 8.1 mph - N/A   Mostly Cloudy
6:15 AM 37.4 °F 30.8 °F 32.0 °F 81% 30.15 in 10.0 mi NW 9.2 mph - N/A   Overcast
6:35 AM 37.4 °F 30.8 °F 32.0 °F 81% 30.16 in 10.0 mi NNW 9.2 mph - N/A   Mostly Cloudy
6:47 AM 37.4 °F 30.8 °F 33.8 °F 87% 30.16 in 10.0 mi NNW 9.2 mph - N/A   Scattered Clouds
6:55 AM 37.4 °F 31.4 °F 32.0 °F 81% 30.16 in 10.0 mi NNW 8.1 mph - N/A   Mostly Cloudy
7:47 AM 39.2 °F 33.0 °F 32.0 °F 75% 30.18 in 10.0 mi NW 9.2 mph - N/A   Mostly Cloudy
8:47 AM 39.2 °F 32.5 °F 33.8 °F 81% 30.20 in 10.0 mi NNW 10.4 mph - N/A Rain Light Rain
9:47 AM 42.8 °F 37.5 °F 35.6 °F 76% 30.19 in 10.0 mi WNW 9.2 mph - N/A   Partly Cloudy
10:47 AM 48.2 °F - 35.6 °F 62% 30.19 in 10.0 mi NW 3.5 mph - N/A   Scattered Clouds
11:49 AM 51.8 °F - 37.4 °F 58% 30.19 in 10.0 mi ESE 10.4 mph - N/A Rain Light Rain
12:50 PM 55.4 °F - 35.6 °F 47% 30.17 in 10.0 mi ESE 4.6 mph - N/A   Scattered Clouds
1:50 PM 57.2 °F - 33.8 °F 41% 30.16 in 10.0 mi SSW 9.2 mph 20.7 mph N/A   Mostly Cloudy
2:50 PM 60.8 °F - 30.2 °F 31% 30.15 in 10.0 mi SW 8.1 mph 19.6 mph N/A   Scattered Clouds
3:47 PM 59.0 °F - 30.2 °F 34% 30.13 in 10.0 mi SSW 6.9 mph - N/A   Scattered Clouds
4:47 PM 60.8 °F - 28.4 °F 29% 30.13 in 10.0 mi West 11.5 mph - N/A   Scattered Clouds
5:47 PM 59.0 °F - 28.4 °F 31% 30.14 in 10.0 mi WNW 6.9 mph 16.1 mph N/A   Scattered Clouds
6:47 PM 59.0 °F - 28.4 °F 31% 30.14 in 10.0 mi WNW 5.8 mph - N/A   Scattered Clouds
7:47 PM 55.4 °F - 28.4 °F 36% 30.14 in 10.0 mi West 8.1 mph - N/A   Partly Cloudy
8:47 PM 51.8 °F - 30.2 °F 44% 30.15 in 10.0 mi WSW 6.9 mph - N/A   Clear
9:47 PM 48.2 °F - 28.4 °F 46% 30.16 in 10.0 mi NNW 5.8 mph - N/A   Clear
10:47 PM 44.6 °F 39.2 °F 28.4 °F 53% 30.19 in 10.0 mi NW 10.4 mph - N/A   Clear
11:15 PM 41.0 °F 35.2 °F 28.4 °F 61% 30.19 in 10.0 mi NNW 9.2 mph - N/A   Clear
11:55 PM 41.0 °F 34.3 °F 28.4 °F 61% 30.20 in 10.0 mi NNW 11.5 mph - N/A   Clear